Weather History for Marshfield, MA

Change the Weather History Date:

Saturday, October 6, 2012

  Actual Average (KPYM) Record (KPYM)
Temperature  
Mean Temperature 66 °F -  
Max Temperature 78 °F 67 °F 83 °F (1963)
Min Temperature 53 °F 44 °F 28 °F (1998)
Growing Degree Days 16 (Base 50)    
Moisture  
Dew Point 60 °F    
Average Humidity 81    
Maximum Humidity 100    
Minimum Humidity 54    
Precipitation  
Precipitation 0.08 in - - ()
Sea Level Pressure  
Sea Level Pressure 29.85 in    
Wind  
Wind Speed 6 mph (SSW)    
Max Wind Speed 18 mph    
Max Gust Speed 28 mph    
Visibility 10 miles    
Events Rain    
Averages and records for this station are not official NWS values.
T = Trace of Precipitation, MM = Missing Value Source: NWS Daily Summary

Daily Weather History Graph

Daily Weather History Graph

Search for Another Location

Airport:

Trip Planner

Search our weather history database for the weather conditions in past years. The results will help you decide how hot, cold, wet, or windy it might be!

Date:

Astronomy

Oct. 06, 2012 Rise Set
Actual Time 6:45 AM EDT 6:14 PM EDT
Civil Twilight 6:17 AM EDT 6:42 PM EDT
Nautical Twilight 5:45 AM EDT 7:15 PM EDT
Astronomical Twilight 5:12 AM EDT 7:47 PM EDT
Moon 10:23 PM EDT (10/6) 12:42 PM EDT (10/6)
Length of Visible Light 12h 25m
Length of Day
11h 29m
Waning Gibbous, 65% of the Moon is Illuminated
Oct 6
Waning Gibbous
Oct 8
Last Quarter
Oct 15
New
Oct 21
First Quarter
Oct 29
Full

Hourly Weather History & Observations

Time (EDT) Temp. Dew Point Humidity Pressure Visibility Wind Dir Wind Speed Gust Speed Precip Events Conditions
12:15 AM 62.6 °F 59.0 °F 88% 29.93 in 10.0 mi SW 5.8 mph - N/A   Clear
12:35 AM 62.6 °F 59.0 °F 88% 29.93 in 10.0 mi SW 4.6 mph - N/A   Clear
12:55 AM 62.6 °F 57.2 °F 82% 29.93 in 10.0 mi SW 3.5 mph - N/A   Clear
1:15 AM 62.6 °F 59.0 °F 88% 29.93 in 10.0 mi SW 5.8 mph - N/A   Clear
1:35 AM 62.6 °F 59.0 °F 88% 29.92 in 10.0 mi SW 3.5 mph - N/A   Clear
1:55 AM 62.6 °F 59.0 °F 88% 29.91 in 10.0 mi SW 4.6 mph - N/A   Clear
2:15 AM 62.6 °F 59.0 °F 88% 29.91 in 10.0 mi WSW 3.5 mph - N/A   Clear
2:55 AM 60.8 °F 57.2 °F 88% 29.90 in 10.0 mi SW 4.6 mph - N/A   Clear
3:15 AM 60.8 °F 59.0 °F 94% 29.90 in 10.0 mi WSW 3.5 mph - N/A   Clear
3:35 AM 60.8 °F 59.0 °F 94% 29.89 in 10.0 mi WSW 3.5 mph - N/A   Clear
3:55 AM 60.8 °F 57.2 °F 88% 29.89 in 10.0 mi WSW 3.5 mph - N/A   Clear
4:15 AM 60.8 °F 59.0 °F 94% 29.89 in 10.0 mi SW 3.5 mph - N/A   Clear
4:35 AM 60.8 °F 59.0 °F 94% 29.89 in 10.0 mi SW 3.5 mph - N/A   Clear
4:55 AM 60.8 °F 59.0 °F 94% 29.89 in 10.0 mi SW 3.5 mph - N/A   Clear
5:35 AM 60.8 °F 59.0 °F 94% 29.88 in 10.0 mi Calm Calm - N/A   Clear
5:55 AM 60.8 °F 57.2 °F 88% 29.88 in 10.0 mi Calm Calm - N/A   Clear
6:15 AM 59.0 °F 57.2 °F 94% 29.88 in 10.0 mi Calm Calm - N/A   Clear
6:35 AM 59.0 °F 57.2 °F 94% 29.88 in 8.0 mi Calm Calm - N/A   Clear
6:55 AM 59.0 °F 57.2 °F 94% 29.87 in 1.5 mi SSW 3.5 mph - N/A   Clear
7:15 AM 62.6 °F 60.8 °F 94% 29.87 in 7.0 mi South 4.6 mph - N/A   Clear
7:35 AM 62.6 °F 62.6 °F 100% 29.87 in 10.0 mi South 5.8 mph - N/A   Clear
7:55 AM 64.4 °F 62.6 °F 94% 29.87 in 10.0 mi South 5.8 mph - N/A   Clear
8:15 AM 64.4 °F 64.4 °F 100% 29.87 in 10.0 mi South 5.8 mph - N/A   Clear
8:35 AM 66.2 °F 64.4 °F 94% 29.87 in 10.0 mi South 6.9 mph - N/A   Clear
8:55 AM 68.0 °F 64.4 °F 88% 29.87 in 10.0 mi South 5.8 mph - N/A   Clear
9:15 AM 69.8 °F 64.4 °F 83% 29.86 in 10.0 mi South 5.8 mph 16.1 mph N/A   Clear
9:35 AM 69.8 °F 64.4 °F 83% 29.86 in 10.0 mi South 5.8 mph - N/A   Clear
9:55 AM 69.8 °F 64.4 °F 83% 29.86 in 10.0 mi South 6.9 mph - N/A   Clear
10:15 AM 71.6 °F 64.4 °F 78% 29.85 in 10.0 mi South 6.9 mph - N/A   Clear
10:35 AM 71.6 °F 64.4 °F 78% 29.85 in 10.0 mi South 8.1 mph - N/A   Clear
10:55 AM 73.4 °F 64.4 °F 73% 29.84 in 10.0 mi South 10.4 mph 16.1 mph N/A   Clear
11:15 AM 75.2 °F 64.4 °F 69% 29.83 in 10.0 mi SSW 8.1 mph 16.1 mph N/A   Clear
11:35 AM 75.2 °F 62.6 °F 65% 29.83 in 10.0 mi South 11.5 mph 20.7 mph N/A   Clear
11:55 AM 75.2 °F 62.6 °F 65% 29.82 in 10.0 mi South 10.4 mph 16.1 mph N/A   Clear
12:15 PM 75.2 °F 60.8 °F 61% 29.81 in 10.0 mi South 9.2 mph 20.7 mph N/A   Clear
12:35 PM 77.0 °F 60.8 °F 57% 29.80 in 10.0 mi South 12.7 mph 20.7 mph N/A   Partly Cloudy
12:55 PM 75.2 °F 60.8 °F 61% 29.79 in 10.0 mi SSW 8.1 mph 18.4 mph N/A   Clear
1:15 PM 77.0 °F 60.8 °F 57% 29.77 in 10.0 mi South 10.4 mph 23.0 mph N/A   Partly Cloudy
1:35 PM 78.8 °F 60.8 °F 54% 29.76 in 10.0 mi South 15.0 mph 26.5 mph N/A   Clear
1:55 PM 78.8 °F 60.8 °F 54% 29.76 in 10.0 mi South 18.4 mph 27.6 mph N/A   Partly Cloudy
2:15 PM 78.8 °F 60.8 °F 54% 29.75 in 10.0 mi South 16.1 mph 24.2 mph N/A   Partly Cloudy
2:35 PM 77.0 °F 60.8 °F 57% 29.75 in 9.0 mi South 15.0 mph 25.3 mph N/A   Scattered Clouds
2:55 PM 75.2 °F 60.8 °F 61% 29.75 in 10.0 mi South 16.1 mph 26.5 mph N/A   Partly Cloudy
3:15 PM 77.0 °F 60.8 °F 57% 29.75 in 10.0 mi South 11.5 mph 19.6 mph N/A   Partly Cloudy
3:35 PM 75.2 °F 60.8 °F 61% 29.75 in 10.0 mi SSW 12.7 mph 21.9 mph N/A   Clear
3:55 PM 75.2 °F 60.8 °F 61% 29.74 in 10.0 mi South 13.8 mph 19.6 mph N/A   Clear
4:15 PM 75.2 °F 60.8 °F 61% 29.74 in 10.0 mi South 9.2 mph 19.6 mph N/A   Clear
4:35 PM 75.2 °F 60.8 °F 61% 29.74 in 10.0 mi South 10.4 mph 24.2 mph N/A   Clear
4:55 PM 73.4 °F 60.8 °F 65% 29.75 in 10.0 mi SSW 9.2 mph 23.0 mph N/A   Clear
5:15 PM 73.4 °F 62.6 °F 69% 29.75 in 10.0 mi South 9.2 mph 18.4 mph N/A   Clear
5:35 PM 71.6 °F 62.6 °F 73% 29.76 in 10.0 mi South 12.7 mph 20.7 mph N/A   Partly Cloudy
5:55 PM 71.6 °F 62.6 °F 73% 29.76 in 10.0 mi South 10.4 mph 17.3 mph N/A   Mostly Cloudy
6:15 PM 71.6 °F 62.6 °F 73% 29.77 in 10.0 mi SSW 11.5 mph 18.4 mph N/A   Mostly Cloudy
6:35 PM 69.8 °F 62.6 °F 78% 29.77 in 10.0 mi South 9.2 mph 16.1 mph N/A   Mostly Cloudy
7:15 PM 68.0 °F 64.4 °F 88% 29.79 in 5.0 mi SSW 8.1 mph - 0.02 in Rain Rain
7:35 PM 62.6 °F 60.8 °F 94% 29.83 in 4.0 mi West 10.4 mph 21.9 mph 0.06 in   Light Drizzle
7:55 PM 60.8 °F 57.2 °F 88% 29.84 in 8.0 mi West 5.8 mph - 0.08 in   Light Drizzle
8:15 PM 60.8 °F 57.2 °F 88% 29.85 in 10.0 mi West 4.6 mph - N/A   Overcast
8:35 PM 60.8 °F 57.2 °F 88% 29.85 in 10.0 mi West 4.6 mph - N/A   Overcast
8:55 PM 59.0 °F 57.2 °F 94% 29.86 in 10.0 mi West 3.5 mph - N/A   Mostly Cloudy
9:15 PM 59.0 °F 57.2 °F 94% 29.87 in 10.0 mi West 3.5 mph - N/A   Scattered Clouds
9:35 PM 57.2 °F 57.2 °F 100% 29.88 in 10.0 mi WSW 5.8 mph - N/A   Partly Cloudy
9:55 PM 57.2 °F 55.4 °F 94% 29.89 in 10.0 mi West 6.9 mph - N/A   Mostly Cloudy
10:15 PM 57.2 °F 55.4 °F 94% 29.90 in 10.0 mi WSW 4.6 mph - N/A   Overcast
10:35 PM 57.2 °F 53.6 °F 88% 29.91 in 10.0 mi West 5.8 mph - N/A   Mostly Cloudy
10:55 PM 55.4 °F 53.6 °F 94% 29.92 in 10.0 mi West 4.6 mph - N/A   Mostly Cloudy
11:15 PM 55.4 °F 51.8 °F 88% 29.92 in 10.0 mi West 8.1 mph - N/A   Partly Cloudy
11:35 PM 53.6 °F 51.8 °F 94% 29.93 in 10.0 mi West 6.9 mph - N/A   Clear
11:55 PM 53.6 °F 50.0 °F 88% 29.94 in 10.0 mi West 6.9 mph - N/A   Clear